Location: Caltech
(34.1382°N, 118.1253°W)
Time: 18:38:13
(UTC-07:00)

Courier 1B - Visible Passes

Search period start: 22 October 2014 00:00
Search period end: 01 November 2014 00:00
Orbit: 963 x 1209 km, 28.3° (Epoch: 22 October)

Date Brightness Start Highest point End Pass type
(mag) Time Alt. Az. Time Alt. Az. Time Alt. Az.
28 Oct 10.1 06:35:32 10° S 06:39:14 15° SSE 06:43:02 10° ESE visible
30 Oct 9.7 06:39:59 10° SSW 06:45:18 24° SSE 06:50:53 10° ESE visible
31 Oct 9.8 05:47:24 10° SSW 05:51:45 18° SSE 05:56:16 10° ESE visible
